Location: Melara
(45.0500°N, 11.1833°E)
Time: 22:07:48
(UTC+00:00)

SL-16 R/B - Pass Details

Date: 26 May 2022
Orbit: 839 x 850 km, 71.0° (Epoch: 03 July)

Event Time Altitude Azimuth Distance (km) Brightness Sun altitude
Exits shadow 01:58:27 19° 236° (SW) 1,922 3.5 -13.8°
Maximum altitude 02:02:18 46° 302° (WNW) 1,120 2.8 -13.4°
Drops below altitude 10° 02:07:46 10° 16° (NNE) 2,476 5.7 -12.7°
Sets 02:10:20 0° 22° (NNE) 3,417 6.8 -12.4°
